Weather in Makarovo

Russia / Irkutsk Oblast     57°29′00″N   107°49′25″E
temp.,
°C
wind,
m/s
gust,
m/s
humid.,
%
clouds,
%
prec.,
mm/h
press.,
hPa
HPBL,
m
7 may, fri
fri723:00−2n1197100 0.0 101219
02:00−3n269727 0.0 1013109
05:00−2n299614 0.0 1015258
08:00+2nne488168 0.0 1016722
11:00+4ne4670100 0.0 10161109
14:00+5ne4668100 0.1 10161145
17:00+5ne3570100 0.0 10171106
20:00+3ne2679100 0.0 1017155
8 may, sat
sat823:00−1nne22905 0.0 101712
02:00−1nne22920 0.0 101611
05:00−2ene00934 0.0 101610
08:00+4ese11695 0.0 1015308
11:00+9e22512 0.0 1013864
14:00+12e11445 0.0 10101455
17:00+12ene114323 0.0 10101801
20:00+7ene11665 0.0 101012
9 may, sun
sun923:00+2ene118723 0.0 101210
02:00+1nne119159 0.0 101210
05:000nw009471 0.0 101210
08:00+5e117295 0.0 1012352
11:00+10e115587 0.0 1011902
14:00+12e1248100 0.3 10101602
17:00+10ene2352100 0.5 10091468
20:00+8s0169100 0.7 101013
10 may, mon
mon1023:00+4nne118064 0.0 101215
02:00+2n22899 0.0 101216
05:00+1n229418 0.0 101328
08:00+6nne356752 0.0 1013460
11:00+12ne464339 0.0 10121345
14:00+14nne443488 0.0 10122279
17:00+14n453581 0.0 10122140
20:00+10nnw255094 0.0 1013161
11 may, tue
tue1123:00+5n287811 0.0 1015181
02:00+3n27885 0.0 1015157
05:00+2n39905 0.0 1016294
08:00+5nne5782100 0.0 1016758
11:00+7nne466295 0.1 10161242
14:00+7nne4659100 0.1 10161313
17:00+7nne5657100 0.1 10161275
20:00+6ne475666 0.1 1016901